Temp
28 28 28 28 27 27 27 27 27 27 27 27 27 28 27 28 28 28 28 28 28 27 27 27 27 27 27 27 27 27 27 26 26 26 25 25 25 26 26 25 25 25 25 25 25 25 25 25 25 25 25 25 25 25 25 25 24 24 24 24 24 24 24 24 25 25 26 26 26 26 25 25 24 24 24 24 23 22 22 22 22 22 22 22 22
29 28 28 28 28 28 27 27 27 27 27 27 27 28 28 28 28 28 28 28 28 28 27 27 27 27 27 27 27 27 27 26 26 26 26 25 25 26 26 26 25 25 25 25 25 25 25 25 25 25 24 24 24 25 25 25 25 24 24 24 24 24 24 24 24 25 25 25 25 25 25 25 24 23 23 23 23 22 22 22 22 22 22 22 22
29 28 28 28 28 28 28 28 27 27 28 28 28 28 28 28 28 28 28 28 28 28 28 27 27 27 27 27 27 27 27 26 26 26 26 26 25 26 26 26 25 25 25 25 25 25 25 25 25 25 24 24 24 24 25 25 25 25 25 25 25 25 24 24 24 24 25 25 25 25 24 24 24 24 23 23 23 23 22 22 22 22 22 22 22
30 29 28 28 28 28 28 28 28 28 28 28 28 29 29 28 28 28 28 28 28 28 27 27 27 27 27 27 27 27 27 26 26 26 26 26 26 26 26 26 26 26 25 25 25 25 25 25 25 25 25 24 24 24 25 25 25 25 25 25 24 25 24 24 24 24 24 25 25 25 24 24 24 24 23 23 23 23 22 22 22 22 22 22 22
31 30 29 29 29 28 28 28 28 28 29 29 29 29 30 30 29 28 28 29 29 28 28 27 27 27 27 27 27 27 27 26 26 26 26 26 26 26 26 26 26 26 25 25 25 25 25 25 25 25 25 25 24 24 24 25 25 25 25 25 24 24 24 24 24 24 24 24 25 24 24 24 24 23 23 23 23 22 22 22 22 22 22 22 22
32 30 30 30 29 29 29 29 29 29 29 30 30 30 30 30 30 29 29 29 29 29 28 28 27 27 27 27 27 27 26 26 26 26 26 26 26 26 26 26 26 26 26 25 25 25 25 25 25 25 25 25 25 24 24 24 25 25 24 24 24 24 24 24 24 23 23 24 24 24 24 24 24 23 23 23 23 23 22 22 22 22 22 22 22
32 31 30 30 30 29 29 29 29 30 29 30 30 31 31 31 31 30 29 29 29 30 29 28 27 27 27 27 27 27 26 26 26 26 26 27 26 26 26 26 26 26 26 26 26 26 25 25 25 25 25 25 25 25 24 24 24 25 24 24 24 24 24 24 24 23 23 23 24 24 24 24 23 23 23 23 23 23 23 22 22 22 22 22 22
32 31 30 30 30 30 29 29 29 30 30 29 30 31 31 31 31 31 30 29 29 30 30 29 28 27 27 27 27 27 26 26 26 26 26 26 26 26 26 26 26 26 26 26 26 26 26 26 25 25 25 25 25 25 25 24 24 24 24 24 24 24 24 24 24 24 23 23 23 24 24 24 23 23 23 23 23 22 23 23 22 22 22 22 22
32 31 31 30 30 30 29 29 29 29 30 29 29 30 31 31 31 31 30 30 30 30 30 30 29 28 27 27 27 27 27 26 26 26 26 26 26 26 26 26 26 26 26 26 26 26 26 26 26 26 26 25 25 25 25 25 24 24 24 24 24 24 24 24 24 24 23 24 24 24 24 24 24 23 23 23 23 22 22 22 23 23 22 22 21
32 32 31 30 30 30 29 29 29 29 29 29 29 29 30 30 30 31 30 30 30 30 30 30 30 29 28 27 27 27 27 27 27 27 26 26 26 27 26 26 26 26 26 26 26 26 27 27 27 26 26 25 25 25 25 25 24 24 24 24 23 23 24 24 24 24 24 24 24 24 24 24 24 24 23 23 23 22 22 22 22 23 23 22 22
32 31 31 30 30 30 29 29 29 29 29 29 29 29 29 30 30 30 30 30 30 30 30 30 30 30 29 28 27 27 27 27 27 27 27 26 26 26 27 26 26 26 26 26 26 27 27 27 27 27 26 26 25 25 24 24 24 24 24 24 23 23 23 24 24 24 24 24 24 24 24 24 24 24 24 24 23 23 23 23 23 22 22 22 22
32 31 31 30 30 30 29 29 29 29 29 29 28 28 29 29 30 30 30 30 29 29 29 29 30 30 30 29 28 28 27 27 27 27 27 27 27 27 27 27 26 26 26 26 26 27 27 27 27 27 26 26 25 25 25 24 24 24 24 24 23 23 23 23 24 24 24 24 24 24 24 25 25 24 24 24 24 23 23 23 23 22 22 22 22
32 31 31 30 30 29 29 29 29 28 28 28 28 28 28 28 29 29 29 29 29 29 29 29 29 29 30 29 29 28 28 27 27 27 27 27 27 27 27 27 27 27 26 26 26 26 27 27 27 27 26 26 25 25 24 24 24 24 23 23 23 23 23 23 23 24 24 24 24 24 24 25 24 24 24 24 24 24 24 23 23 22 22 22 22
32 31 30 30 30 29 29 29 29 28 28 28 28 28 28 28 28 29 29 29 29 28 29 29 29 29 29 29 29 29 29 28 27 27 27 27 27 26 27 27 27 27 27 27 26 26 26 26 27 26 26 26 25 25 24 24 23 23 23 23 23 23 23 23 23 23 23 23 24 24 24 24 24 24 24 24 24 24 24 23 23 23 22 22 22
32 31 30 30 30 29 29 29 29 28 28 28 28 28 28 28 28 29 29 29 28 28 28 28 28 28 28 29 29 29 29 29 28 27 27 27 27 26 26 26 27 27 27 27 26 26 26 26 26 26 26 26 25 25 24 23 23 23 22 22 22 22 22 22 22 23 23 23 23 24 24 24 24 24 24 24 23 23 23 23 22 22 22 21 21
32 31 30 30 30 29 29 29 29 29 28 28 28 28 28 28 28 28 29 29 29 28 28 28 28 28 28 28 28 29 29 29 28 28 27 27 27 26 26 26 26 27 27 27 26 26 26 26 26 26 26 25 25 25 25 24 23 22 22 22 22 22 22 22 22 22 22 23 23 23 23 24 24 24 24 23 23 22 22 22 22 22 21 21 21
32 31 30 30 30 29 29 29 29 29 28 28 28 28 28 28 28 28 28 29 29 29 28 28 28 28 28 28 28 28 29 29 29 28 27 27 26 26 25 25 26 26 26 26 26 26 26 26 26 26 25 25 25 25 25 24 23 22 22 22 22 23 23 23 22 22 22 22 22 22 23 23 23 23 23 23 22 22 22 22 22 21 21 21 21
32 31 30 30 30 29 29 29 29 29 28 28 28 28 28 28 28 28 28 28 29 29 29 29 28 28 28 28 28 28 28 28 28 28 28 27 26 26 25 25 25 26 26 26 26 26 26 26 25 25 25 25 25 25 24 24 24 23 23 23 23 23 23 24 23 23 22 22 22 22 22 22 22 23 23 23 22 21 21 21 22 22 22 22 22
31 31 31 30 30 29 29 29 29 29 29 29 29 29 28 28 28 28 28 28 29 29 29 29 29 28 28 28 28 28 28 28 28 28 27 27 26 26 25 25 25 25 25 26 26 26 26 26 25 25 25 25 25 25 24 24 24 23 23 24 24 24 24 24 24 23 22 22 22 22 21 21 22 22 22 22 22 21 21 21 21 22 22 22 22
31 31 31 30 30 30 29 29 29 29 29 29 29 29 29 29 29 28 28 28 29 29 29 29 29 29 29 29 29 28 28 28 28 28 27 27 27 26 25 25 25 25 25 26 26 26 26 26 26 25 25 25 25 25 24 24 24 24 24 25 25 25 25 25 24 24 23 22 22 21 21 21 21 21 21 21 21 21 21 21 21 22 22 22 22
31 31 30 30 30 30 30 29 29 29 29 29 29 29 29 29 29 29 29 29 29 29 29 29 30 30 29 29 29 29 29 29 28 28 28 27 27 26 25 25 25 25 26 26 26 26 26 26 26 26 25 25 25 25 24 24 24 23 24 25 25 25 25 25 24 24 23 22 21 21 21 21 21 21 21 20 20 20 20 20 21 21 21 21 21
31 31 30 30 30 30 30 29 29 29 29 29 29 29 29 29 29 29 29 29 29 29 29 29 29 29 30 30 30 29 29 29 29 29 28 27 27 26 25 25 25 25 26 26 26 27 27 27 27 26 26 25 24 24 24 24 24 23 23 24 24 24 24 24 24 24 22 22 21 21 21 21 21 21 21 20 20 20 20 20 20 21 21 21 21
31 30 30 30 30 30 30 30 29 29 29 29 29 29 29 29 29 29 29 29 29 29 29 29 29 29 29 29 29 29 29 29 29 29 28 28 27 26 26 25 25 25 26 26 27 27 27 27 27 27 26 25 25 24 24 23 23 23 23 23 24 24 24 24 24 24 22 21 21 21 21 21 21 21 21 21 21 20 20 20 20 20 20 21 21
30 30 30 30 30 30 30 30 29 29 29 29 29 29 29 29 29 29 29 29 29 29 29 29 29 29 29 29 29 29 29 29 29 29 28 28 27 27 26 25 25 25 25 26 27 27 27 27 27 27 26 26 25 25 24 23 23 23 23 23 23 24 24 23 24 23 22 21 21 21 21 22 22 21 21 22 22 21 20 20 20 20 20 20 20
30 30 30 30 30 30 30 30 29 29 29 29 29 29 28 28 28 28 28 28 29 29 29 29 29 29 29 29 29 29 29 29 29 29 29 28 27 27 26 26 25 25 25 25 26 26 27 27 27 27 26 26 25 24 24 23 22 22 22 22 22 23 23 23 23 23 22 21 21 21 21 21 22 22 21 22 22 21 20 20 20 20 20 20 20
30 30 30 30 30 30 30 30 29 29 29 29 29 28 28 29 28 28 28 28 29 29 29 29 29 29 29 29 29 29 29 29 29 29 29 28 27 27 26 26 26 25 25 25 25 25 26 26 26 26 26 26 25 24 24 23 22 22 22 21 22 22 22 22 22 22 22 22 21 21 21 21 21 22 21 21 21 20 19 20 20 20 20 20 20
29 29 30 30 30 30 30 30 30 29 29 29 29 29 29 29 29 28 29 29 29 29 29 29 29 29 29 29 29 29 29 29 29 29 28 27 26 26 26 25 25 25 25 24 24 24 25 25 25 25 25 25 25 24 24 23 22 21 21 21 21 21 21 22 22 21 21 21 21 21 21 21 21 21 21 20 20 19 19 19 20 20 20 20 20
29 29 29 30 30 29 30 30 30 29 29 30 30 30 30 30 30 29 29 29 29 29 29 29 29 29 29 29 29 29 29 29 28 27 26 24 23 23 23 24 24 24 24 24 24 24 24 24 24 24 24 23 23 22 22 21 20 20 19 20 20 20 21 21 21 21 21 21 21 21 21 21 20 20 20 19 19 19 19 19 19 20 20 20 19
29 29 29 29 29 29 29 29 30 31 31 30 28 27 28 29 29 28 27 27 27 27 28 28 27 27 27 27 26 27 27 27 26 25 24 24 23 23 22 22 22 23 24 24 24 23 22 23 22 22 22 21 20 19 19 18 18 18 18 19 19 20 20 20 20 20 20 20 20 20 20 20 20 20 19 19 19 19 19 19 19 20 20 20 19
28 28 28 28 28 28 29 29 29 30 31 29 26 25 26 26 27 26 25 25 26 25 25 25 25 25 25 24 24 24 24 24 24 24 25 25 25 24 23 22 22 22 22 23 22 21 21 21 21 21 20 19 18 18 18 18 17 17 17 18 18 19 19 19 20 20 19 20 20 20 19 19 19 19 19 19 19 19 19 19 19 19 20 19 19
28 27 27 27 27 27 28 28 27 28 28 28 27 26 25 25 25 25 25 25 25 25 25 25 24 24 24 24 24 24 23 22 23 23 24 24 24 24 23 22 22 21 21 21 20 20 20 21 21 21 20 19 18 19 19 18 17 17 17 17 17 18 19 19 19 19 19 19 19 19 19 19 19 19 19 19 19 19 19 19 19 19 19 19 19
27 27 27 27 27 27 27 27 27 27 27 27 27 27 27 26 25 25 25 25 25 24 24 24 24 24 24 24 24 24 23 23 24 24 24 23 23 23 23 22 22 21 19 16 16 17 19 20 21 21 20 19 19 19 19 18 17 17 17 17 17 17 18 18 18 19 19 19 19 19 19 19 19 19 19 19 19 19 19 19 19 19 19 19 20
26 26 26 26 26 26 26 26 26 27 27 27 27 28 28 28 27 26 25 24 24 24 24 24 23 23 23 22 22 22 22 22 23 23 23 22 21 21 21 21 22 20 16 12 12 15 18 19 20 21 20 19 19 19 18 18 17 17 17 17 17 17 17 18 18 18 18 19 19 19 19 19 19 19 19 19 19 19 19 18 18 18 19 19 20
25 25 25 25 25 25 26 26 26 26 26 26 27 27 27 27 27 27 26 26 25 24 24 23 23 23 22 22 21 20 20 20 20 20 20 20 19 19 19 19 20 18 14 11 11 13 16 18 19 20 20 20 19 18 18 17 17 17 17 17 17 17 17 17 18 18 18 18 19 19 19 19 19 19 19 19 19 19 19 18 18 19 19 19 20
25 25 25 25 25 25 25 25 25 25 25 25 26 26 26 26 26 26 26 26 26 25 24 24 23 22 21 21 20 20 20 20 19 19 19 19 19 18 18 17 17 16 14 12 11 12 14 16 18 19 20 20 19 18 17 17 17 17 17 17 17 17 17 17 18 18 18 18 19 19 19 19 19 19 19 19 18 18 18 18 18 19 19 20 20
25 25 25 25 25 25 25 24 24 24 25 25 25 26 26 26 26 26 26 25 25 25 25 24 23 22 21 20 20 20 20 20 20 20 20 19 19 18 17 16 16 16 15 14 14 13 13 14 16 18 19 19 18 18 17 17 17 17 17 17 17 17 17 17 18 18 18 18 18 18 19 19 18 18 19 18 18 18 18 19 19 20 20 20 20
25 25 25 25 24 24 24 23 23 23 24 25 25 25 25 25 25 26 26 25 24 25 25 24 23 23 22 20 19 19 20 20 20 20 20 20 19 19 17 16 16 16 16 16 15 15 14 14 15 16 18 18 17 17 17 17 17 17 17 17 17 17 17 17 18 18 18 18 18 18 18 18 18 18 18 18 19 19 19 19 20 20 20 20 20
23 23 23 23 24 24 24 23 23 24 24 25 25 25 25 25 25 25 25 25 24 24 24 24 23 22 22 20 18 18 19 20 21 21 21 20 19 19 19 18 17 17 17 17 16 15 15 15 16 17 18 18 18 17 17 17 17 17 17 17 17 17 17 17 17 18 18 17 17 18 18 18 18 19 19 19 19 20 20 20 21 21 20 20 20
22 21 21 22 23 23 23 24 24 24 24 25 25 24 24 24 24 24 25 24 24 24 23 23 23 22 21 19 17 17 19 21 21 21 21 20 19 19 18 18 18 19 18 18 17 16 16 16 17 17 18 18 18 17 17 17 17 17 16 17 16 17 17 17 17 17 17 17 17 18 18 18 18 19 19 19 19 20 20 21 21 21 20 20 20
23 22 22 22 23 23 24 24 24 24 24 24 24 24 24 23 24 24 24 24 23 23 23 23 23 22 20 18 17 17 18 20 20 20 20 20 19 18 18 17 17 18 18 18 17 17 17 17 16 16 17 17 17 17 16 16 16 16 17 16 16 16 17 17 17 17 17 18 18 18 18 18 18 18 18 19 20 20 20 20 21 21 21 20 20
23 23 23 23 23 24 24 24 24 24 24 24 24 24 23 23 23 23 23 23 23 23 23 23 22 21 19 18 17 17 18 19 20 20 20 20 20 18 18 17 17 17 18 17 17 17 17 17 17 18 18 18 18 18 17 17 17 17 17 17 17 17 17 17 17 17 17 17 17 18 18 18 18 18 19 19 20 20 21 21 21 21 21 20 19
23 23 24 24 24 24 25 24 24 24 24 24 24 23 22 23 22 22 22 22 22 22 23 23 22 21 19 19 18 18 19 20 20 20 19 19 19 19 18 17 16 16 16 17 16 16 16 16 17 17 18 17 17 17 18 17 17 17 17 17 17 17 17 17 17 17 17 17 18 18 18 19 19 19 19 19 20 20 20 21 20 20 20 19 19
24 23 23 23 23 24 24 24 24 24 24 23 23 23 23 23 23 23 23 23 23 23 23 23 22 21 20 19 19 19 20 20 20 19 19 19 18 18 18 18 17 16 16 16 16 16 16 16 16 16 16 16 16 17 17 17 17 16 16 16 16 17 17 17 17 17 17 17 18 18 18 18 18 19 19 19 20 20 20 20 19 19 19 19 19
24 24 24 23 23 23 23 23 23 23 22 22 22 22 22 23 23 23 23 23 23 23 23 22 22 21 21 20 20 20 20 20 19 19 19 19 18 18 18 17 17 16 16 16 16 16 16 16 16 16 16 16 16 16 16 17 17 17 17 17 17 17 17 17 17 17 17 17 18 18 18 18 18 19 19 19 19 19 19 19 19 19 19 19 19
23 23 23 23 23 22 22 22 22 22 22 22 22 22 21 21 21 21 22 22 22 22 22 22 22 21 20 20 20 20 20 20 20 19 19 18 18 18 18 17 17 16 16 16 16 16 16 15 16 16 16 16 16 16 16 17 17 17 17 17 17 17 17 17 17 17 17 17 17 18 18 18 18 18 19 19 19 19 19 18 18 18 18 18 18
21 21 22 21 21 21 21 21 21 21 21 21 21 21 21 21 20 20 20 20 20 20 20 21 21 21 20 20 20 20 20 20 20 19 19 18 18 18 18 17 16 16 16 16 16 15 15 15 15 16 16 16 16 16 16 16 16 16 16 17 17 16 16 17 17 17 17 17 17 17 17 17 18 18 18 18 18 18 18 18 18 18 18 18 18
20 21 21 21 20 20 20 20 20 20 20 20 19 19 19 19 18 18 18 18 18 18 18 19 19 19 19 19 19 19 19 19 20 20 19 19 18 17 17 16 16 16 16 16 16 16 16 15 15 15 16 16 16 16 16 16 16 16 16 16 16 16 16 16 17 17 16 16 16 17 17 17 18 18 18 17 18 18 18 18 18 18 18 17 18
20 20 20 20 19 19 18 18 18 17 17 17 17 17 17 16 16 16 16 16 17 17 17 17 17 18 18 18 18 19 19 19 19 19 19 19 19 18 16 15 15 15 15 15 15 16 16 15 15 16 16 16 15 16 16 16 16 16 16 16 16 16 16 16 16 16 16 17 17 17 17 17 17 17 17 17 17 18 18 18 17 17 17 17 17
19 19 19 18 18 17 16 16 15 15 15 15 15 15 15 14 14 13 13 14 14 15 15 15 16 16 16 17 17 18 18 18 18 18 18 19 18 18 17 15 14 14 15 15 15 15 15 15 15 15 15 15 15 16 16 15 15 15 15 15 15 16 16 16 16 16 17 17 17 17 17 17 17 17 17 17 17 17 17 17 17 17 17 17 16
18 17 17 17 17 17 16 16 15 15 14 14 13 13 12 12 12 11 11 11 11 12 12 13 14 14 15 15 16 16 16 16 16 17 17 18 18 18 17 16 15 15 15 15 15 15 15 15 15 15 16 16 16 16 16 15 15 15 15 15 16 16 16 16 16 16 16 16 16 16 16 16 16 16 16 16 17 17 17 16 16 16 16 16 16
17 17 16 16 16 16 16 16 16 15 14 13 12 11 11 10 10 9 9 9 9 9 9 10 11 11 12 12 13 14 14 14 15 16 17 17 18 18 18 18 17 16 15 15 15 15 15 16 16 16 16 16 16 16 16 16 15 16 16 16 16 16 16 16 16 16 16 16 16 16 16 16 16 16 16 16 16 16 16 16 16 16 16 16 16
Height
736 739 743 746 750 753 756 759 763 766 769 772 774 776 778 781 783 785 787 789 791 793 795 797 798 800 802 803 805 807 809 810 812 814 815 816 818 819 820 821 822 823 824 826 827 828 829 830 831 832 833 834 835 835 835 836 837 837 838 838 839 840 841 842 842 842 842 842 842 842 843 844 845 845 846 847 847 846 847 848 848 848 848 848 848
729 733 737 741 744 747 751 755 758 761 764 767 769 772 774 776 779 782 784 786 787 789 791 793 795 797 798 800 802 804 805 807 809 810 812 813 814 816 817 817 819 820 821 822 823 825 826 827 828 830 831 832 832 833 833 834 834 835 836 836 837 838 839 840 841 841 841 841 842 842 843 843 843 844 844 845 845 845 846 846 846 847 847 847 847
723 727 731 735 739 743 747 750 753 757 759 762 764 767 770 772 775 777 779 782 784 785 787 789 791 793 795 797 798 800 802 803 805 807 808 809 810 812 813 813 815 816 817 818 820 821 822 824 825 826 828 829 829 830 831 832 832 833 833 834 835 836 837 838 839 840 840 840 841 841 842 842 842 842 842 843 843 844 844 844 845 845 845 845 846
719 723 726 729 734 738 741 745 748 751 754 757 759 762 765 768 770 772 775 777 779 781 783 785 787 789 791 793 795 797 798 799 801 803 804 806 807 808 809 810 811 812 813 814 816 818 819 820 821 823 824 825 826 827 828 829 830 830 831 832 833 834 835 836 837 838 838 839 839 839 840 840 840 840 841 841 841 842 842 843 843 844 844 844 844
715 718 721 725 729 732 736 739 742 745 748 751 754 757 761 763 766 768 770 773 775 778 779 781 783 785 787 789 791 793 794 796 797 799 800 802 803 804 805 806 807 808 809 811 812 814 815 816 817 819 820 821 822 823 824 826 827 828 829 830 831 832 832 833 834 835 836 836 837 837 838 838 838 838 839 839 840 840 841 842 842 842 843 843 843
710 713 717 720 723 726 730 733 736 739 743 746 749 752 755 758 760 763 765 768 771 773 775 777 779 780 782 785 787 788 790 792 793 795 797 798 799 801 802 803 804 805 806 807 808 809 810 812 813 814 815 816 817 819 820 822 824 825 826 827 828 829 830 831 832 833 833 834 835 835 836 836 837 837 837 838 838 838 839 840 840 841 841 841 841
705 709 712 716 719 721 724 727 731 734 737 741 744 747 750 753 755 758 760 763 765 768 770 772 774 776 778 780 782 784 786 788 789 791 793 794 795 797 798 799 800 801 802 803 804 805 806 807 808 809 810 811 813 815 816 818 820 822 823 824 826 827 827 828 829 830 831 831 832 833 833 834 835 836 836 837 837 837 837 838 838 839 839 839 839
702 706 709 712 714 716 720 723 726 729 732 736 739 742 745 748 750 753 756 758 760 763 765 768 770 771 774 775 778 780 781 783 785 786 788 790 792 793 794 795 796 797 798 799 800 801 801 802 803 804 805 807 809 810 812 814 816 818 820 821 823 824 824 825 826 827 828 828 829 830 831 832 833 834 835 835 835 835 835 835 836 836 837 837 837
698 702 705 707 710 713 717 720 722 725 728 731 735 737 740 744 746 750 752 754 756 758 761 763 765 767 769 771 773 775 776 777 779 781 783 785 787 789 790 791 793 794 794 795 796 796 797 798 798 799 801 802 804 806 808 810 812 814 816 817 819 820 821 822 823 824 825 825 826 827 828 828 829 831 832 832 832 832 833 833 834 834 835 835 835
695 698 701 703 707 710 714 717 719 722 725 727 730 733 737 740 743 745 748 750 752 755 757 759 761 762 764 766 768 769 771 771 773 775 778 780 783 785 786 787 788 789 790 790 791 792 792 793 794 795 797 798 800 802 805 807 808 810 812 813 815 816 818 819 820 821 822 822 822 823 824 824 826 827 828 828 829 830 830 831 831 832 833 833 833
691 695 697 700 704 707 710 713 716 719 721 724 727 730 733 736 739 741 744 746 749 751 753 755 756 758 760 761 763 764 765 766 768 770 773 775 778 780 781 782 783 784 785 785 786 787 788 789 790 792 793 794 796 798 800 803 804 806 808 809 811 812 814 815 816 817 818 818 819 819 820 820 822 823 825 825 826 827 827 828 829 829 830 831 831
687 691 694 698 701 703 706 710 713 716 719 722 724 727 730 733 735 738 740 742 745 747 749 751 752 754 756 757 759 759 760 761 762 765 767 769 772 775 776 777 778 779 780 780 781 783 784 785 787 788 789 790 792 794 796 798 800 802 804 805 807 808 810 811 812 813 814 814 815 816 816 817 818 819 821 822 823 824 824 825 826 826 827 827 828
684 688 691 694 696 698 702 705 708 712 715 719 722 725 727 730 731 734 736 738 741 743 745 747 749 751 752 753 754 754 755 756 757 759 761 763 766 769 771 772 772 773 774 775 777 778 779 781 782 783 785 786 788 791 792 794 796 798 800 802 803 804 805 807 808 809 810 811 811 812 813 814 814 815 817 818 820 821 821 822 822 823 824 825 825
680 683 687 690 692 695 698 700 703 707 711 715 719 721 724 726 728 730 733 735 737 739 741 743 745 746 747 748 750 750 750 751 752 754 756 758 761 763 765 767 767 768 769 770 772 773 774 776 777 778 780 782 783 786 788 789 791 794 796 797 798 799 801 802 803 805 806 807 808 809 810 811 811 812 814 815 816 817 818 818 819 820 821 822 823
676 679 682 685 688 691 694 697 700 704 707 711 713 716 719 721 724 727 729 731 733 735 737 739 740 742 743 744 746 746 746 747 748 750 752 754 756 759 761 763 763 764 765 766 767 768 769 770 772 773 775 777 777 780 782 784 785 788 790 791 793 795 796 796 798 800 802 803 804 805 806 808 809 809 811 812 813 815 815 816 817 818 819 820 821
673 675 677 680 684 687 691 695 698 701 705 707 709 712 714 716 720 723 726 728 730 731 733 735 736 738 739 740 741 741 742 743 744 745 747 750 753 755 757 758 759 760 761 761 762 763 764 765 766 768 770 771 771 773 776 778 779 781 783 785 787 789 790 790 792 794 796 798 800 801 803 805 806 806 808 809 810 812 813 815 815 816 817 817 818
668 671 674 677 680 684 688 691 695 698 701 703 705 707 710 713 716 719 722 724 726 727 729 730 732 734 735 736 736 736 737 738 739 740 742 745 748 750 751 753 755 755 756 757 758 759 759 760 761 762 763 764 764 765 769 772 773 774 776 779 781 783 784 785 787 788 791 793 795 797 799 801 802 803 804 806 807 809 811 811 812 813 813 814 814
664 667 671 674 677 680 684 687 690 693 696 698 700 703 706 710 712 715 717 719 721 723 725 726 728 729 730 730 731 732 732 733 734 735 737 739 741 743 745 747 749 749 750 751 752 754 755 756 756 756 757 757 757 759 762 765 767 767 769 771 774 775 776 779 781 782 785 788 791 793 795 797 798 800 801 802 803 805 807 807 808 809 810 810 811
661 665 668 672 675 678 680 684 687 689 692 694 697 701 703 706 708 711 713 715 717 719 721 722 723 724 725 725 726 727 727 728 729 730 731 733 735 737 740 742 742 743 743 744 746 748 749 750 749 749 750 751 752 753 755 758 760 760 761 763 765 766 768 772 774 775 778 782 785 788 790 792 794 796 797 798 799 801 803 804 805 806 806 807 808
660 663 667 669 672 675 677 680 683 686 689 692 695 698 700 703 705 707 709 711 713 715 717 718 719 719 720 721 721 722 723 723 725 725 726 728 730 732 735 736 736 737 738 740 741 742 742 742 742 741 742 746 749 749 750 752 754 756 757 757 756 757 761 765 768 770 771 774 778 781 784 787 790 792 793 794 795 797 799 800 802 802 803 804 805
658 661 664 666 670 672 674 677 680 683 686 689 692 694 696 699 701 703 706 708 710 711 713 714 715 716 716 717 717 717 718 720 721 721 722 723 726 729 732 732 733 735 737 737 738 737 734 733 734 734 736 740 742 743 744 746 749 752 752 750 750 753 757 760 763 765 766 769 773 777 780 783 786 788 789 790 791 793 794 796 797 799 800 801 801
656 659 661 664 667 669 672 675 677 680 683 686 689 691 693 696 698 700 702 704 706 708 710 711 712 713 713 713 714 714 715 717 717 717 718 720 723 725 727 728 730 732 733 733 732 731 730 729 730 730 731 733 735 737 739 741 743 745 746 746 747 750 753 756 759 761 762 764 769 772 775 778 781 783 785 785 786 789 790 792 793 795 796 797 798
654 656 659 662 664 667 670 672 675 677 680 683 686 689 691 693 695 697 699 701 703 704 706 708 710 710 710 710 711 711 712 713 714 714 715 716 719 720 721 723 725 727 728 727 726 726 726 727 727 726 727 728 730 731 732 733 735 736 739 742 744 746 748 751 754 755 756 759 763 766 770 774 777 779 781 783 783 785 786 788 790 791 793 795 796
653 655 658 660 663 665 668 670 673 675 678 681 684 686 689 691 693 695 697 698 700 701 702 704 706 707 707 708 708 708 709 710 711 711 711 712 713 714 716 718 720 722 723 722 722 722 722 722 722 722 722 723 724 725 727 728 729 730 733 736 739 740 742 745 747 750 752 754 757 761 765 769 772 774 777 780 781 782 783 786 788 789 791 793 794
652 654 657 659 661 664 666 668 671 673 676 679 681 684 686 688 690 692 694 696 697 698 699 700 701 703 704 705 705 706 707 707 708 707 707 708 708 710 711 713 715 718 718 717 717 718 718 718 719 718 717 718 720 722 723 724 726 728 731 734 735 735 737 739 741 744 746 749 752 756 760 764 766 768 771 774 777 779 781 784 786 787 789 791 793
652 654 656 658 660 662 664 667 669 672 675 677 680 682 684 686 688 690 692 693 695 696 697 697 698 699 701 701 702 703 704 705 705 705 704 704 704 705 707 708 709 711 711 710 710 712 713 715 716 716 715 715 716 717 718 720 723 726 729 731 731 729 728 730 733 736 739 743 748 752 756 759 762 765 767 769 771 775 778 782 784 785 786 789 790
652 654 655 657 659 661 663 665 668 671 674 676 678 681 682 684 685 687 689 690 691 692 693 694 695 697 698 699 700 700 701 702 702 702 702 702 702 703 703 703 704 706 706 704 704 706 709 710 711 712 712 711 711 711 712 714 716 718 721 724 725 724 721 722 725 729 733 739 744 748 753 757 761 764 766 766 768 772 777 781 782 783 785 786 787
653 654 655 656 658 660 662 664 666 669 672 674 675 677 678 680 682 684 686 687 688 689 690 691 693 694 695 696 696 697 698 698 699 700 702 702 703 703 702 702 702 702 701 700 700 702 704 705 706 707 706 705 705 705 705 706 707 709 712 715 719 721 721 722 724 726 730 735 740 744 749 754 757 760 761 763 766 770 775 779 781 781 783 784 785
652 654 655 656 658 660 662 664 665 666 669 672 674 675 676 678 680 682 684 685 686 687 688 690 692 693 694 696 696 696 697 697 697 698 699 700 701 701 702 702 701 699 697 696 697 698 699 700 700 700 698 697 696 696 695 696 698 701 704 708 712 715 717 718 719 722 725 730 735 740 746 751 754 756 759 760 762 767 772 776 779 779 780 782 784
654 655 656 658 659 660 662 664 665 666 667 671 674 676 678 679 681 682 684 685 686 687 688 690 692 693 694 696 697 697 698 697 696 696 696 696 696 695 695 696 696 695 694 694 695 695 694 692 691 690 689 687 684 682 681 681 684 688 693 699 706 710 711 712 713 715 720 725 730 736 743 748 751 755 757 758 759 763 769 773 776 777 778 780 782
656 657 658 660 661 662 663 665 667 667 669 671 675 677 679 681 682 683 684 685 687 688 690 691 692 693 694 695 695 696 697 696 695 694 693 692 691 690 689 689 688 688 689 691 692 689 686 683 679 677 675 672 670 669 669 669 672 676 682 689 696 701 706 708 708 710 713 718 723 728 734 741 746 751 754 755 755 758 764 769 774 776 777 778 779
658 659 661 662 663 664 666 667 669 670 672 674 676 678 679 682 684 685 686 687 688 690 691 692 693 693 694 694 694 694 694 693 692 691 690 689 687 686 684 682 681 680 681 684 684 678 674 672 669 665 662 659 657 658 661 664 668 673 677 682 687 692 698 702 704 707 709 713 718 723 727 733 740 746 751 754 754 756 760 765 770 774 775 776 776
661 662 664 665 666 668 669 670 672 673 675 676 678 678 679 681 683 686 688 689 690 691 692 692 693 694 694 694 694 694 693 692 691 689 688 686 684 682 679 676 674 673 673 674 672 666 662 659 657 654 652 651 651 653 657 662 667 670 671 673 676 682 689 694 699 704 708 712 718 724 727 732 736 742 747 752 754 756 758 763 768 771 773 773 773
665 666 667 668 670 671 672 673 675 676 678 679 679 680 681 682 684 685 687 688 690 692 692 693 693 694 694 694 694 694 693 691 690 689 687 684 682 679 675 671 668 667 666 665 663 660 656 651 647 643 641 641 643 647 651 655 659 662 665 668 672 677 683 689 695 700 705 710 716 721 726 731 735 739 743 747 751 755 758 761 766 768 769 770 770
668 669 670 671 672 673 675 676 678 679 680 681 682 683 684 685 686 687 687 688 690 691 692 693 693 694 694 694 694 694 692 691 689 687 685 683 679 676 672 667 663 662 660 659 658 655 652 648 644 639 637 636 637 638 640 641 644 650 657 663 669 675 679 684 690 695 700 707 713 716 720 726 730 734 739 744 748 752 755 759 762 764 765 766 766
671 673 674 674 675 676 678 679 680 681 682 683 684 685 686 686 687 687 688 689 690 690 691 692 693 693 693 694 693 692 691 689 687 685 683 681 678 674 670 667 664 662 660 657 654 651 647 644 642 639 637 635 633 632 633 633 635 640 648 655 663 670 674 678 683 689 695 702 709 713 718 722 726 729 735 741 745 749 753 756 758 760 761 762 763
674 675 676 678 679 680 681 683 683 684 685 685 686 686 686 687 687 688 688 689 691 691 691 692 692 692 693 693 692 691 689 687 686 684 682 680 677 673 670 668 665 663 659 655 651 648 644 641 639 637 635 632 629 628 629 632 636 642 648 653 659 666 671 675 680 687 693 699 705 711 716 720 723 726 732 738 743 747 750 753 754 755 757 759 761
678 679 680 681 682 683 684 685 686 686 686 686 686 686 687 687 688 688 689 690 691 691 691 692 692 692 692 693 692 690 688 687 685 682 680 679 676 674 671 668 665 662 658 653 648 644 641 638 636 635 634 631 630 629 630 634 640 645 650 654 658 663 669 676 682 688 694 699 703 709 714 717 720 724 729 735 740 744 747 749 751 752 755 757 759
682 683 683 684 684 686 686 687 687 686 686 686 686 687 687 687 688 688 689 690 691 692 692 692 693 693 693 694 693 691 689 687 684 682 680 679 677 675 673 670 666 662 658 653 647 643 642 640 638 636 634 631 632 634 634 635 640 645 648 650 654 660 668 676 682 689 695 699 703 707 712 715 717 722 727 733 738 741 744 747 748 750 751 753 754
683 685 686 686 687 687 687 687 687 687 686 686 686 686 687 688 689 689 690 691 692 693 693 693 693 693 693 694 693 692 690 688 686 684 682 680 679 677 675 672 669 665 661 657 652 648 645 642 640 640 640 639 640 642 642 641 645 649 650 650 654 661 668 674 680 687 694 698 702 706 710 713 716 721 726 731 736 739 742 745 746 747 748 750 751
684 685 686 686 686 686 686 687 687 687 686 686 687 688 689 690 690 691 692 692 693 694 694 693 693 693 693 693 693 692 690 688 687 686 684 682 680 679 677 675 672 668 665 662 659 656 652 647 643 641 641 643 645 649 652 653 655 657 657 658 661 667 672 677 682 689 694 699 702 706 710 713 717 720 725 729 733 737 740 742 743 744 745 748 750
685 685 685 685 685 685 685 686 687 687 687 687 689 691 691 691 692 692 693 694 694 694 694 693 693 693 693 693 693 692 690 689 688 686 685 683 682 680 679 677 674 672 669 667 664 662 659 656 652 646 643 643 645 650 655 661 664 665 665 665 667 671 675 680 686 692 697 701 704 707 710 714 717 721 724 728 732 735 738 739 741 742 744 746 749
686 685 685 685 685 686 687 688 688 689 690 690 691 691 691 691 691 692 692 693 693 694 693 693 693 693 693 693 693 692 690 688 688 687 686 684 683 681 680 678 676 675 673 671 669 667 665 662 660 657 654 652 653 654 658 663 667 670 671 671 672 675 679 685 690 695 699 702 706 709 712 715 719 722 725 729 732 735 736 738 739 741 744 747 749
686 685 684 685 687 689 691 692 692 692 692 692 692 692 692 691 692 692 692 692 692 692 693 693 693 693 693 693 692 691 690 689 688 687 686 685 684 682 681 680 679 677 675 674 673 672 669 667 666 664 662 662 663 664 665 667 670 673 674 675 676 679 683 688 693 697 701 704 708 711 715 717 720 723 726 729 732 734 735 737 739 742 745 747 748
688 687 688 689 690 692 693 694 694 694 693 692 692 693 693 694 694 694 695 695 694 694 694 693 693 693 693 693 692 692 690 689 688 687 686 685 684 683 682 681 680 679 678 676 675 674 673 672 671 670 670 670 671 672 673 673 675 677 678 679 680 682 686 691 695 699 702 705 709 714 717 720 722 725 728 730 732 733 735 737 740 742 744 746 747
694 694 693 693 694 694 695 696 696 695 694 693 694 694 695 696 696 697 697 697 697 697 695 694 694 694 693 693 693 692 691 690 688 687 686 685 684 683 683 682 681 680 680 679 678 678 677 676 675 675 675 676 677 678 679 679 680 682 683 683 684 686 690 694 698 701 704 708 712 716 720 722 725 727 728 730 732 733 735 737 739 741 743 744 746
699 698 696 695 696 697 698 699 698 697 697 697 697 698 699 700 700 701 701 700 699 698 697 696 695 694 694 694 694 693 692 691 689 687 686 685 684 684 683 682 682 682 681 681 681 680 680 680 680 679 680 680 681 682 683 684 685 687 688 689 690 692 695 699 701 705 708 712 715 718 721 724 725 727 728 730 731 733 735 737 739 740 742 744 745
701 700 699 698 700 701 702 702 702 701 701 702 703 704 705 705 705 705 704 703 702 701 700 699 698 696 696 696 695 694 693 692 690 688 687 686 685 685 684 683 683 683 683 683 683 683 683 684 683 683 683 684 685 686 687 688 689 690 692 693 695 697 699 703 706 709 711 714 717 719 721 723 725 726 727 729 731 732 734 736 738 739 741 743 744
704 703 703 703 704 705 706 706 706 706 707 707 708 709 710 710 710 709 708 706 705 704 702 701 700 699 699 698 697 696 695 693 691 690 689 687 686 686 686 685 684 684 683 684 684 685 686 687 687 687 687 688 689 690 691 692 693 694 695 697 699 701 703 706 708 711 712 714 717 719 721 723 724 725 727 729 731 732 733 735 737 739 741 742 743
709 708 708 708 708 709 710 710 710 711 712 713 714 714 714 714 714 713 712 710 708 707 706 704 703 702 701 700 699 698 697 695 693 692 691 690 689 688 688 687 687 686 686 686 687 687 689 690 690 690 690 691 692 693 695 696 697 698 699 700 702 704 705 707 709 711 713 715 717 719 721 722 724 725 727 729 730 732 733 735 737 738 740 741 742
713 713 713 713 712 713 713 713 713 715 716 717 718 718 718 718 717 716 715 714 712 711 709 708 706 705 704 703 701 700 699 697 695 693 692 692 691 690 690 690 690 689 689 690 690 690 692 693 693 693 693 694 695 696 697 698 699 700 701 703 704 705 707 709 710 712 714 716 718 720 721 722 724 725 727 729 730 732 734 735 737 738 739 740 741
Wind_Speed
35 35 35 35 33 33 33 33 33 31 30 29 29 28 27 27 26 24 23 23 23 23 23 24 23 23 23 23 23 23 23 23 23 23 22 21 21 19 19 20 21 20 20 20 19 19 19 19 18 18 17 16 15 15 14 15 15 15 14 14 14 14 13 12 9 8 8 9 8 7 7 9 10 10 10 10 10 11 11 11 12 12 11 11 12
37 36 36 35 35 34 34 34 32 32 31 30 30 29 27 27 27 25 24 24 24 24 24 24 24 24 23 23 23 23 23 24 23 23 23 22 22 21 21 22 22 21 21 21 22 21 20 20 20 19 18 18 17 16 15 15 16 16 16 16 16 15 15 14 12 10 10 10 10 9 8 9 10 10 11 12 11 11 11 11 12 12 11 10 10
37 36 35 35 35 34 34 33 32 32 32 31 31 30 29 27 27 26 26 25 24 25 25 25 25 25 24 23 23 23 24 24 24 24 24 23 23 23 22 24 24 23 23 23 23 23 21 21 21 21 20 20 19 18 17 17 17 17 17 17 16 16 16 16 14 12 11 11 11 11 11 11 11 11 12 13 12 11 12 11 11 11 11 11 10
36 35 35 35 35 35 34 34 33 33 33 32 31 31 30 28 27 28 27 26 25 25 25 25 25 25 25 24 24 24 24 25 25 24 24 24 24 24 24 25 25 25 25 24 24 24 23 23 22 22 22 21 21 20 19 18 18 18 18 17 17 16 16 17 16 14 11 11 12 12 12 12 13 13 13 13 13 12 12 12 12 12 11 11 10
35 35 35 35 35 36 35 35 34 35 34 33 33 33 31 30 28 28 29 28 27 26 25 26 26 26 26 25 25 25 25 26 26 25 25 25 25 25 25 25 26 26 26 25 25 25 25 24 23 24 23 23 22 21 21 20 19 18 18 18 18 17 16 17 17 16 13 12 12 12 12 13 13 14 14 14 13 13 13 12 12 12 12 12 11
34 34 34 34 35 36 36 36 35 35 35 34 33 34 33 32 30 29 29 29 29 27 26 26 27 27 26 26 26 26 26 26 27 26 26 25 25 25 25 26 26 26 26 26 26 26 26 26 25 25 25 25 23 23 22 22 21 20 19 19 18 18 17 17 17 17 16 14 13 13 14 13 13 14 15 15 14 13 13 13 13 13 13 13 12
34 33 33 33 34 35 36 36 35 35 35 35 34 33 33 33 32 30 29 29 29 29 28 27 27 28 28 27 27 27 27 27 27 27 27 26 26 26 25 26 26 26 26 26 26 27 27 27 27 27 27 27 25 24 23 22 22 21 21 20 19 18 18 18 17 17 17 16 15 15 15 15 15 14 14 15 15 14 13 13 13 14 14 14 14
32 32 32 32 33 34 35 35 35 35 35 35 35 33 33 33 33 31 29 29 29 30 30 29 27 27 28 28 28 28 28 28 28 28 28 27 26 26 26 26 26 26 26 27 27 27 27 28 28 28 28 28 27 25 24 23 22 22 21 21 20 20 19 18 18 18 17 17 16 16 15 16 16 16 15 15 16 16 15 14 14 14 14 14 14
31 31 31 31 32 31 32 32 33 34 34 33 34 35 34 33 32 31 30 29 29 29 29 29 28 28 28 29 29 29 29 29 30 30 29 28 27 27 27 27 27 27 27 27 27 27 27 28 28 29 29 30 30 28 26 24 23 22 22 22 22 21 20 19 18 19 18 17 17 16 16 17 17 17 17 17 18 17 16 15 14 14 14 13 14
31 31 31 31 30 29 30 30 30 31 32 32 32 34 33 32 31 31 31 30 28 27 28 28 28 28 28 29 29 29 30 30 32 33 33 31 29 27 27 27 28 28 28 27 28 28 28 28 28 29 30 31 32 32 30 28 26 24 23 24 24 23 21 20 19 19 18 18 17 17 17 17 17 18 18 18 18 17 16 16 15 15 14 13 12
30 31 30 29 28 28 29 29 29 29 30 30 30 31 32 31 31 31 31 30 29 28 27 28 29 29 28 29 29 30 30 31 33 36 37 36 32 29 28 28 28 29 29 29 28 28 28 28 28 29 31 33 34 34 34 32 30 28 26 25 26 25 23 22 21 20 20 19 18 18 18 17 17 18 19 18 18 17 16 16 15 15 14 14 12
29 30 29 27 27 28 28 28 27 28 28 28 28 28 29 29 29 29 29 30 29 28 27 28 29 29 28 28 29 29 30 32 35 38 39 40 38 32 28 28 29 29 30 30 28 27 27 28 27 27 30 33 35 35 35 35 34 33 31 29 29 29 27 25 23 22 21 20 19 18 19 18 18 18 19 18 17 17 17 16 16 15 14 14 13
28 29 29 28 28 29 29 28 28 28 28 27 26 25 27 28 28 28 28 28 28 28 28 28 28 28 28 28 29 29 30 32 37 40 41 42 43 39 32 28 29 29 30 30 29 28 27 27 27 26 27 31 34 34 35 37 37 35 35 34 32 32 32 30 27 25 22 20 20 20 19 18 18 19 20 19 17 17 17 16 16 16 15 14 13
28 28 29 29 29 29 29 29 29 28 27 27 26 26 26 27 28 27 26 27 28 28 28 27 27 28 29 29 29 30 29 31 35 40 41 42 44 44 38 30 29 30 30 30 29 29 29 28 27 27 26 28 33 33 31 35 38 38 37 37 35 34 34 34 33 30 27 23 21 20 20 20 19 19 19 19 18 17 17 17 16 16 16 14 12
27 28 29 30 29 29 29 29 28 27 27 27 28 28 27 27 28 27 26 26 27 27 27 28 28 29 29 30 29 29 29 31 33 37 41 42 43 45 42 34 29 29 29 29 29 29 30 29 28 27 26 27 32 34 31 30 35 39 39 36 34 32 33 36 36 34 32 29 24 22 21 22 22 20 19 18 19 18 16 15 16 14 13 11 9
27 27 29 29 29 28 28 27 25 25 26 26 28 28 28 27 27 26 26 25 25 25 26 27 28 28 28 29 29 30 30 31 33 35 38 40 41 44 45 38 31 29 28 28 29 29 29 30 29 28 28 28 31 36 36 31 30 34 36 33 32 31 31 34 37 36 35 33 29 25 22 21 21 22 22 20 19 18 15 14 14 12 11 11 11
28 28 28 28 28 27 27 26 26 26 26 27 28 28 28 26 25 26 26 25 24 25 25 25 26 27 28 29 30 31 30 31 34 35 36 39 40 44 46 39 32 31 30 29 30 31 30 30 29 29 30 31 32 36 39 36 30 30 31 30 29 29 29 30 33 36 37 36 34 31 27 24 23 21 22 23 21 18 17 16 16 15 14 13 13
29 28 26 26 27 27 27 27 27 27 27 28 28 27 26 25 25 25 26 26 26 25 24 24 25 26 28 29 30 30 30 32 35 36 38 39 41 45 46 39 32 32 32 30 32 32 32 33 33 32 32 33 35 37 40 40 34 30 30 29 28 28 28 26 27 32 35 36 36 34 31 29 27 23 22 25 25 22 19 18 17 16 15 14 13
27 27 25 24 26 26 26 27 27 27 27 27 26 25 24 24 24 24 25 25 25 25 24 24 24 25 26 28 30 31 30 31 33 36 39 40 42 45 44 37 32 32 31 30 31 32 33 35 37 38 37 35 36 38 41 43 39 33 32 30 29 29 29 27 26 28 31 35 36 36 34 32 30 27 23 24 27 26 22 19 17 16 15 14 13
24 24 24 23 24 25 25 26 26 26 26 25 24 24 23 23 23 23 23 23 22 23 23 24 24 24 25 25 28 30 30 30 32 35 39 41 43 46 42 34 31 32 31 30 30 31 34 37 39 43 43 39 37 38 41 45 43 35 32 31 31 31 29 28 28 27 29 34 34 33 33 30 27 26 24 24 27 28 24 21 20 18 16 14 14
22 23 23 23 23 24 24 25 25 24 24 23 23 23 22 22 22 22 21 21 21 21 21 22 22 23 24 24 25 27 28 29 30 32 36 40 43 45 42 34 30 30 30 30 31 32 34 37 38 42 44 43 43 42 42 45 45 38 34 34 34 31 29 29 29 28 29 32 30 27 26 26 26 26 26 25 26 26 24 23 21 19 18 16 15
21 22 23 22 22 23 23 23 23 23 22 22 22 22 21 20 20 20 20 19 19 19 19 20 20 21 22 23 24 25 26 26 28 30 33 35 39 43 44 38 32 31 31 31 33 34 34 33 34 37 42 45 47 46 43 44 46 44 40 36 35 32 31 29 28 27 28 29 27 25 25 25 26 28 28 25 24 23 23 23 22 20 19 17 16
20 20 21 21 21 21 21 21 21 20 20 21 20 19 19 19 19 19 19 18 18 19 19 19 20 21 21 23 24 25 25 25 27 29 30 32 35 40 44 43 39 36 33 32 33 33 33 33 33 34 37 42 47 49 48 47 48 49 46 40 35 34 34 32 29 27 27 27 26 26 26 26 26 27 27 26 24 24 23 23 22 21 19 18 17
17 18 18 19 19 19 19 19 19 18 18 19 19 18 18 18 18 18 18 18 18 18 18 18 19 20 20 22 22 23 23 23 24 27 29 31 33 37 41 44 43 40 37 36 35 33 31 33 34 34 35 38 43 49 52 51 50 50 49 44 38 37 36 33 32 30 28 27 27 26 26 27 27 26 27 27 25 24 23 21 21 21 19 18 18
16 16 16 16 17 17 17 18 17 17 17 18 19 18 18 18 17 17 17 17 17 17 17 17 17 18 19 21 21 20 21 22 23 25 27 29 31 34 38 42 44 45 43 40 38 37 36 34 34 35 36 38 40 45 52 54 52 50 49 45 41 40 38 34 32 32 29 27 27 27 26 27 28 28 28 26 23 23 21 19 21 21 18 18 18
14 14 14 15 15 16 16 16 16 16 15 15 15 15 16 16 16 15 16 16 16 16 16 15 16 17 18 19 19 18 19 20 21 22 23 26 29 32 35 39 42 45 48 48 46 44 43 40 37 34 33 35 39 44 49 52 52 51 50 47 44 43 42 38 34 33 31 28 28 28 28 28 28 27 25 23 21 22 22 20 21 20 20 20 19
12 13 13 14 15 15 15 15 15 14 14 14 14 14 15 15 15 15 15 16 15 15 15 15 15 16 16 17 17 17 18 19 21 19 17 18 23 30 36 40 43 45 49 53 53 49 47 45 43 39 34 34 39 44 47 50 52 52 51 51 47 43 42 41 37 34 32 30 29 28 26 25 26 25 23 22 20 21 22 21 20 21 22 22 19
11 12 12 12 13 14 13 13 13 14 14 13 11 11 13 15 15 14 13 13 13 13 14 14 15 15 14 14 14 14 15 16 14 10 8 8 12 18 25 34 41 45 50 54 56 54 49 46 45 42 38 36 39 44 46 48 51 51 52 53 48 40 37 37 34 32 32 31 30 29 26 24 26 26 23 22 20 21 23 23 21 22 23 21 18
11 12 11 11 12 12 12 12 12 12 14 12 8 7 5 7 9 8 6 5 5 4 5 6 6 7 7 7 8 9 12 14 15 17 20 23 24 22 21 24 32 40 45 50 53 52 47 42 40 38 37 36 39 42 44 45 47 49 51 52 46 37 36 37 34 32 34 33 30 30 27 24 25 26 24 23 22 22 25 26 24 22 21 19 18
12 12 11 11 11 10 11 10 7 6 10 12 12 12 10 7 6 6 6 3 1 1 2 3 5 7 8 8 8 9 10 14 19 22 24 26 28 28 26 26 30 35 41 45 45 44 41 40 38 38 38 38 39 40 42 44 44 45 47 49 44 37 36 39 37 34 35 34 31 30 28 24 25 26 25 24 24 23 25 27 25 20 18 20 19
12 12 11 11 11 10 10 9 7 7 8 9 9 9 10 10 8 7 6 5 3 2 1 2 4 4 5 6 7 7 8 10 13 14 15 17 19 22 24 26 29 33 37 39 39 38 38 38 38 40 42 42 42 43 43 42 42 42 42 43 43 40 37 38 38 37 38 37 35 34 33 29 27 28 27 25 24 24 24 26 24 20 19 21 19
12 12 12 12 11 11 10 10 9 8 8 7 6 7 9 10 11 11 11 10 9 7 6 6 6 7 8 8 8 8 10 12 14 16 17 19 21 22 24 26 28 31 32 31 33 38 41 39 38 40 41 40 41 43 41 38 38 39 38 38 39 40 38 38 39 39 38 36 34 33 34 32 29 29 28 24 22 23 24 25 24 21 21 21 18
13 13 13 12 12 12 12 12 11 10 9 8 7 7 7 8 9 10 10 9 9 10 9 8 8 8 10 11 12 13 14 16 18 19 21 24 26 27 28 29 30 31 29 26 30 38 42 40 39 42 42 39 40 39 36 33 36 39 40 40 41 41 40 40 41 38 35 33 30 29 31 30 29 29 29 25 22 22 23 25 24 22 21 21 18
15 14 14 13 12 12 12 12 11 11 10 9 8 7 7 7 6 6 6 5 6 5 5 5 5 7 10 12 13 14 15 16 19 20 22 26 28 29 31 33 33 29 24 23 27 33 36 38 39 42 43 41 40 36 33 35 38 40 39 39 39 39 38 39 39 36 33 32 31 30 30 29 28 27 25 23 23 21 21 24 24 22 21 21 19
15 15 14 13 12 12 12 11 11 10 10 9 7 7 6 5 5 4 3 3 3 2 2 1 3 7 9 11 13 15 15 16 18 19 21 24 27 30 31 31 28 22 17 18 23 26 30 34 37 39 38 37 36 37 39 42 43 42 38 36 36 36 38 40 38 36 35 35 34 34 34 32 30 27 24 23 24 23 21 22 24 23 22 22 20
14 14 13 13 12 12 11 10 10 9 8 7 6 6 5 4 3 3 3 3 2 2 1 2 4 6 6 8 13 16 15 15 17 18 19 21 25 28 25 21 20 19 17 17 20 24 27 31 34 36 35 32 32 36 39 42 42 41 40 40 38 37 38 40 39 37 37 37 35 35 35 33 31 29 26 23 25 26 24 23 24 25 24 20 17
12 12 11 11 11 11 11 11 9 8 7 6 5 5 5 4 3 3 3 3 3 3 3 4 5 5 5 8 14 17 16 16 17 17 16 18 23 24 21 16 16 19 21 21 21 22 24 27 28 28 27 26 30 35 37 37 35 34 36 38 40 40 38 39 39 38 37 36 35 34 34 32 30 29 27 25 24 25 25 24 24 23 21 19 17
12 11 11 10 10 10 9 9 7 6 6 6 6 5 5 4 4 4 4 4 4 4 5 6 6 7 8 11 15 17 16 16 16 16 16 17 20 22 21 19 17 18 21 23 21 20 22 23 21 18 15 13 16 25 30 31 30 33 36 38 40 40 39 38 37 35 33 33 32 32 32 31 29 29 28 26 24 24 24 24 22 20 20 20 20
12 12 11 10 10 8 7 7 7 6 6 7 6 6 6 6 5 5 5 5 5 6 6 6 6 7 8 10 14 16 15 14 15 17 17 17 18 20 22 22 20 19 20 19 15 12 14 13 10 10 8 8 14 23 32 35 34 35 38 40 40 39 38 37 35 32 31 32 31 30 30 29 29 28 27 23 22 24 24 21 19 20 23 23 22
11 10 9 8 7 7 7 7 8 7 7 7 7 7 7 7 7 6 6 6 6 6 6 6 6 6 7 10 13 13 12 13 15 16 16 16 16 18 20 21 20 19 20 19 13 7 2 5 8 9 10 11 11 13 20 28 29 28 29 34 36 37 37 37 36 33 32 32 31 29 28 27 26 27 25 22 21 24 24 22 23 24 21 19 18
11 10 8 6 5 5 7 8 8 7 7 7 8 8 8 7 7 7 7 7 7 6 6 7 8 8 10 13 15 13 11 11 12 14 15 15 15 16 18 19 19 17 17 17 15 11 8 12 17 19 19 18 17 16 17 22 25 27 29 32 33 33 33 33 32 30 28 28 27 26 25 23 24 26 25 22 21 23 26 26 26 23 15 10 12
9 9 8 6 5 6 7 8 7 7 7 8 8 7 6 5 6 6 6 7 7 8 8 8 8 8 10 14 16 14 13 11 10 11 13 14 14 14 15 16 16 15 14 14 13 11 11 12 15 19 22 24 26 27 26 24 23 24 26 29 31 30 29 29 27 26 26 25 25 25 23 21 23 25 24 21 19 19 20 19 17 13 10 10 12
9 9 10 10 10 10 9 7 7 7 7 7 6 5 5 5 5 5 6 6 7 8 9 9 9 8 9 11 13 14 13 11 10 11 12 12 13 14 13 12 12 12 11 10 9 8 9 12 14 16 19 22 23 25 26 24 22 23 24 26 27 27 26 25 24 24 24 24 24 24 22 21 21 22 22 21 19 16 13 12 12 11 12 14 14
7 8 10 10 9 8 8 7 7 6 6 6 6 7 8 8 8 8 8 9 9 9 9 9 9 9 10 11 12 12 12 10 9 9 10 11 12 12 12 12 10 9 7 7 6 6 7 11 15 16 18 20 21 22 23 24 24 25 27 27 27 27 27 25 24 23 23 23 24 23 21 20 20 19 18 18 17 15 13 13 13 13 14 15 15
10 11 12 12 10 8 8 8 8 8 8 8 8 9 10 10 10 10 10 10 11 11 10 9 9 10 10 11 11 12 12 11 9 8 8 9 11 11 10 10 8 7 5 5 5 5 7 11 15 17 18 19 20 20 21 23 24 25 26 27 28 28 27 25 24 23 23 23 22 19 18 18 18 16 16 16 16 14 14 14 15 15 15 15 15
13 13 13 13 12 11 11 11 11 11 12 12 12 12 12 12 12 12 12 12 12 12 12 12 11 10 10 10 11 11 12 12 11 9 8 9 10 9 9 8 6 4 4 5 7 9 10 13 16 18 18 19 20 19 19 21 22 23 24 25 26 26 25 24 24 23 23 22 21 19 18 17 16 15 15 16 15 13 13 14 15 15 15 14 14
13 12 13 14 14 14 14 15 15 15 16 16 16 15 15 15 14 14 14 14 14 13 13 14 13 11 11 11 11 12 12 13 12 10 8 8 9 8 7 6 4 3 5 7 9 11 13 14 17 20 20 20 21 21 20 21 22 22 22 23 25 25 23 22 22 21 21 21 20 19 19 18 16 15 15 15 14 13 13 14 14 14 14 14 13
15 15 15 16 17 16 16 17 18 18 18 17 17 17 16 16 16 15 15 15 15 14 13 13 13 13 13 13 13 13 13 13 14 12 9 7 7 7 6 5 3 4 6 8 11 14 16 18 21 23 23 21 21 21 22 22 23 23 22 21 22 22 22 21 21 21 21 21 20 18 18 17 15 14 15 14 13 13 13 13 13 14 13 13 13
18 18 18 18 18 18 19 19 19 19 19 18 17 17 16 16 16 17 17 17 16 16 15 13 13 13 13 13 13 13 13 14 16 15 10 6 5 6 5 4 4 6 9 12 15 18 21 22 22 21 20 18 18 18 19 20 20 21 21 21 21 23 24 23 22 22 21 20 19 17 16 15 14 13 14 13 12 12 13 12 12 12 13 13 12
20 20 19 19 19 18 18 19 19 19 19 18 17 17 17 17 17 19 19 18 18 18 17 16 15 14 14 13 13 12 12 14 17 16 11 5 5 5 5 5 6 8 12 15 17 18 18 18 18 17 17 17 16 16 16 16 17 19 21 22 22 24 24 23 22 21 19 18 16 15 14 13 12 12 12 12 11 10 11 12 11 12 12 12 12
20 20 20 20 20 19 18 19 19 20 20 19 18 17 17 18 18 19 20 20 20 20 20 20 19 19 18 17 16 14 13 14 16 16 14 10 7 5 4 5 7 9 12 14 15 15 13 13 13 13 13 14 13 13 12 12 14 17 19 19 19 20 19 19 19 19 17 14 13 12 12 12 12 11 11 11 10 10 10 11 11 11 11 11 12
Wind_Direction
188 189 192 194 195 195 198 199 201 201 202 202 204 207 209 210 212 212 212 211 210 210 209 209 209 207 206 205 205 204 203 202 202 201 202 203 203 206 205 202 203 205 206 210 215 218 218 219 220 218 214 214 215 216 214 209 205 207 207 203 205 206 206 211 224 232 221 218 224 220 209 205 205 214 218 211 217 227 225 222 228 235 236 241 249
190 190 191 194 195 195 197 199 199 200 201 202 204 206 207 209 210 210 211 211 210 210 209 209 208 207 207 206 204 204 202 202 202 201 203 203 203 206 206 203 203 205 207 210 214 217 216 216 218 218 214 214 215 215 216 212 207 207 207 206 206 205 204 206 215 227 227 219 219 227 228 217 212 214 216 217 218 219 223 223 223 229 233 236 243
191 190 190 192 194 195 196 198 198 200 201 203 205 207 207 208 208 208 210 210 209 210 209 208 207 207 208 207 204 204 202 202 203 203 204 204 204 205 206 205 205 206 208 211 213 215 215 214 215 215 213 213 214 215 217 215 212 210 209 208 208 207 204 205 210 219 228 226 220 223 225 219 219 221 216 218 222 219 221 222 222 226 230 231 237
192 190 190 192 193 194 196 197 198 200 202 204 206 208 209 209 208 207 209 212 211 210 209 208 207 205 206 206 204 203 203 202 203 205 205 206 206 206 207 206 206 207 208 209 211 212 213 213 213 213 212 212 212 213 215 215 214 212 211 210 209 209 205 204 209 214 223 229 225 223 221 216 220 225 220 216 219 221 222 223 224 226 228 230 233
193 191 192 193 193 194 196 197 199 201 203 206 207 210 211 211 210 209 209 212 213 211 208 207 207 204 204 205 204 203 204 204 204 205 207 207 207 208 208 208 208 207 207 208 209 211 212 213 212 211 211 211 211 212 213 214 213 212 212 210 209 209 208 205 207 210 216 226 227 222 221 220 219 221 219 216 215 219 223 225 227 228 228 232 234
193 192 193 193 194 195 195 197 200 202 204 207 209 210 212 212 211 210 210 211 212 212 209 207 206 205 204 204 204 204 204 205 205 206 207 208 208 209 210 210 209 209 208 209 210 211 211 212 211 211 211 211 210 211 211 211 212 212 212 211 208 208 208 207 206 207 212 220 225 222 221 222 222 220 218 216 214 215 218 224 229 229 228 232 235
193 192 193 194 195 195 196 197 199 201 203 206 208 209 211 212 213 212 211 210 211 211 211 208 206 204 204 204 204 204 204 205 206 206 207 208 208 209 211 212 211 211 210 211 213 212 211 211 211 211 212 212 211 210 209 209 211 212 211 209 208 207 207 207 206 206 209 213 219 222 221 221 222 225 221 216 218 219 218 219 225 227 228 229 232
193 193 193 195 196 196 196 197 198 200 203 204 206 208 210 211 213 213 211 210 211 211 211 209 207 205 204 204 204 204 204 205 206 206 207 208 208 208 211 213 213 213 212 213 214 214 213 213 213 212 212 212 212 210 209 207 208 210 210 208 207 206 206 207 207 208 208 210 214 218 221 222 222 225 223 216 217 221 219 219 222 224 226 227 228
193 193 194 196 196 195 195 197 198 200 201 202 204 206 209 210 212 212 212 211 211 212 211 211 208 205 204 204 204 205 205 206 206 206 206 207 208 209 212 214 215 215 214 215 215 216 216 216 216 215 214 213 212 211 210 208 207 207 207 205 205 206 207 207 207 208 209 211 213 214 219 224 222 221 221 216 215 218 218 218 223 225 225 227 225
193 195 196 196 195 192 193 196 197 198 199 200 201 203 206 208 209 210 212 212 212 211 211 212 211 208 205 204 204 205 207 208 210 210 209 208 207 209 212 214 215 216 216 216 217 218 219 220 220 218 217 215 213 213 213 212 209 208 207 205 203 203 205 207 208 209 210 212 214 213 216 222 222 220 220 218 216 218 216 214 221 226 225 227 225
195 197 198 195 192 191 192 195 196 197 198 198 199 200 203 205 207 209 211 212 212 212 212 212 213 212 208 206 206 206 209 212 213 213 214 213 210 208 211 213 214 216 217 217 218 220 220 221 222 221 219 217 215 216 217 216 213 211 210 208 206 204 203 206 209 210 212 214 216 216 217 220 222 223 225 223 217 216 217 216 219 224 222 223 224
197 197 198 194 192 192 192 193 195 197 198 198 198 198 200 203 205 206 208 209 210 211 212 212 213 214 212 209 209 210 212 214 216 216 216 217 214 210 211 213 214 215 218 218 219 220 220 221 222 221 219 217 216 218 220 219 217 215 214 212 210 209 208 209 211 212 213 215 217 219 220 221 221 223 228 229 221 216 218 218 219 221 220 221 224
196 196 196 194 193 192 191 191 194 196 196 197 198 198 199 202 203 204 206 207 208 209 211 211 212 213 214 213 213 214 215 216 217 218 219 219 217 215 212 214 215 215 217 219 219 219 218 219 220 219 218 216 214 215 219 221 219 218 218 216 215 215 216 216 216 215 215 217 219 221 221 221 221 223 226 228 226 221 219 218 218 219 221 227 231
196 193 194 195 194 192 191 191 192 193 193 193 195 198 200 203 204 206 206 206 208 209 210 211 212 213 215 217 218 219 219 219 218 219 221 221 220 218 215 215 217 218 218 218 218 218 217 216 217 217 216 214 211 209 213 217 218 217 217 217 217 218 220 221 220 219 218 219 222 224 224 224 225 226 225 224 225 225 221 215 216 220 224 231 232
197 193 193 195 194 192 191 192 192 191 191 191 194 198 201 203 204 206 207 208 209 209 210 212 213 214 216 218 221 223 224 223 221 221 222 223 222 220 218 217 220 222 221 219 218 217 217 216 216 215 213 210 209 209 208 208 213 215 214 214 216 217 220 222 222 221 220 221 223 224 225 228 229 229 227 222 222 225 222 218 220 223 221 216 212
199 195 194 195 194 192 191 192 192 192 191 192 195 199 202 202 202 204 207 210 211 211 212 214 216 217 218 219 223 226 227 227 225 223 222 224 223 221 219 219 223 225 225 223 221 219 217 215 214 214 211 209 210 213 212 205 203 207 209 210 213 216 220 223 224 223 221 221 223 224 224 228 229 229 227 222 218 217 217 218 217 212 206 205 210
200 198 195 194 193 191 191 192 192 193 193 194 198 201 202 202 201 203 206 210 213 213 214 216 217 218 220 221 223 226 228 228 228 226 223 221 221 220 218 219 222 226 227 226 225 224 222 218 215 213 211 210 211 215 215 208 199 197 201 205 208 215 221 223 224 226 224 222 221 223 225 227 229 231 226 220 214 208 207 212 211 206 209 216 224
199 197 196 193 191 190 192 193 193 194 195 197 200 201 201 202 202 202 205 210 214 216 216 217 218 220 222 223 223 225 228 229 228 227 224 221 219 218 217 217 220 224 226 227 227 228 228 225 220 217 215 215 214 215 214 209 202 196 197 199 203 211 215 216 218 222 224 225 224 223 223 225 228 232 227 219 214 208 205 210 213 213 218 222 229
199 196 194 192 191 191 191 193 194 195 197 199 201 201 201 202 203 203 206 211 215 217 218 219 221 221 223 225 225 226 229 230 229 227 225 222 219 217 215 214 218 222 223 224 225 226 229 230 226 221 220 219 217 215 214 211 205 200 198 198 202 208 210 210 211 212 214 219 222 222 222 224 226 228 227 220 216 213 211 212 216 221 224 225 227
197 195 193 190 190 191 191 192 194 197 199 199 200 201 201 202 203 204 207 211 214 217 219 222 225 225 226 227 228 228 229 232 232 231 227 225 221 217 213 213 218 221 222 224 226 225 227 230 230 225 222 219 219 218 217 213 210 205 202 203 206 208 206 207 210 210 207 210 213 215 217 219 219 220 220 219 216 215 215 214 218 223 225 226 226
195 193 191 190 191 191 192 193 194 197 199 198 199 202 202 203 204 205 207 210 213 217 220 223 227 229 229 230 231 232 233 233 236 236 232 228 224 218 214 215 220 225 229 231 231 231 228 227 229 229 224 218 219 221 219 217 214 211 209 210 210 208 203 204 208 209 205 202 200 200 204 210 213 214 215 216 214 214 214 213 217 220 219 221 222
191 190 189 190 192 192 193 193 193 196 198 197 198 201 202 203 204 204 207 210 213 216 220 225 231 234 235 237 238 240 240 238 239 240 237 232 227 222 218 219 221 225 232 236 235 236 236 231 230 231 226 220 219 220 221 219 216 214 215 214 211 206 202 202 205 202 195 190 189 192 197 203 210 213 213 211 208 211 214 213 213 214 215 218 220
186 186 186 188 191 192 193 192 191 193 195 196 197 198 199 201 202 203 205 209 212 215 218 225 234 240 242 244 245 245 246 245 243 243 241 236 232 228 224 224 224 224 229 236 237 237 239 239 236 234 230 223 220 220 222 220 216 216 216 214 210 205 201 201 203 197 185 180 184 191 195 200 206 211 212 211 208 207 209 209 209 209 210 215 220
179 181 184 187 190 191 191 190 188 189 190 191 193 195 196 198 200 202 204 208 212 216 219 224 233 240 244 247 249 249 251 252 250 248 247 242 238 234 230 228 227 225 228 235 240 241 242 242 240 238 233 227 223 223 224 222 219 217 216 213 209 203 199 199 201 195 184 180 185 189 194 199 204 205 209 214 214 206 200 202 208 208 208 213 218
172 176 181 184 186 188 187 187 187 187 186 187 191 193 193 195 198 200 206 214 220 224 226 227 231 238 243 246 249 250 252 254 254 253 252 248 243 239 236 233 231 229 230 234 239 242 244 244 245 244 238 230 226 224 224 224 223 220 216 213 209 204 199 198 197 192 187 185 185 186 190 196 199 201 205 211 210 197 187 194 205 205 204 210 212
168 173 177 179 180 182 182 182 182 183 183 186 190 195 198 200 202 203 208 216 223 229 231 231 231 236 242 246 249 251 251 254 255 255 255 252 246 243 241 238 236 235 235 236 237 238 241 243 247 251 245 234 226 223 223 224 224 222 218 214 209 205 200 196 193 190 189 187 184 185 190 194 197 200 200 197 191 183 182 193 203 201 201 204 203
168 171 172 172 174 176 177 178 178 179 183 187 190 196 201 203 203 203 207 214 219 223 226 230 233 237 242 247 249 250 252 254 257 259 260 255 250 246 242 239 238 236 235 237 237 236 237 238 241 247 248 240 230 225 223 223 220 218 216 213 210 207 203 197 193 190 188 186 185 186 188 191 196 198 192 184 181 182 188 198 201 199 201 201 193
165 166 165 164 166 169 171 173 172 174 180 185 187 192 199 204 205 205 209 215 220 223 227 230 234 239 246 253 257 258 257 257 262 279 304 306 285 264 248 243 241 237 236 237 238 237 237 237 237 240 242 237 227 220 217 216 215 214 211 209 209 209 205 198 193 189 186 185 183 183 186 191 193 190 184 180 181 186 192 197 200 201 203 199 190
150 151 150 149 153 156 160 165 169 177 178 164 120 96 126 171 182 174 167 179 199 229 245 246 258 273 283 295 299 293 287 285 293 303 305 302 300 293 276 260 252 247 247 247 242 238 236 236 234 233 232 224 215 210 208 207 208 209 209 207 207 206 201 195 189 185 183 180 177 180 187 191 187 182 179 179 182 189 193 196 202 205 201 195 197
128 130 128 129 132 134 144 151 149 158 160 140 105 86 88 99 110 105 96 106 143 306 295 292 305 308 309 315 314 311 306 301 301 301 299 295 296 295 290 280 268 260 259 257 249 240 235 234 230 227 223 216 210 207 205 201 199 201 204 204 204 202 198 193 188 181 177 175 175 181 187 187 181 180 181 181 183 188 193 196 203 206 196 193 201
122 119 116 118 119 119 130 137 114 86 99 112 115 114 103 89 82 81 81 86 85 59 7 329 329 332 339 340 331 330 338 335 329 327 323 315 310 306 303 297 285 273 265 260 252 242 236 233 229 224 220 215 212 210 207 200 196 196 197 198 199 199 195 191 186 179 174 175 179 184 185 183 179 179 182 183 182 183 185 190 197 203 199 198 203
115 111 110 110 108 107 114 121 117 105 100 107 128 136 119 100 91 87 86 84 79 78 81 76 63 55 44 29 15 6 4 1 358 353 345 337 332 324 316 308 298 288 279 267 254 243 237 235 232 228 223 218 214 212 207 200 196 194 191 191 193 195 193 189 184 179 176 177 180 181 180 177 175 176 180 184 183 179 179 183 191 199 204 206 205
106 110 113 108 100 99 103 106 108 111 113 115 122 129 126 122 117 112 106 94 78 73 76 72 65 56 43 30 23 20 14 5 358 353 348 345 343 337 328 318 309 301 290 269 251 244 240 236 233 231 229 224 217 212 205 197 194 194 192 190 190 190 189 185 181 177 175 176 179 177 174 172 170 173 178 184 184 179 175 180 190 200 205 208 207
98 101 107 104 98 97 99 98 98 98 98 99 103 103 100 104 114 124 131 124 105 92 78 57 37 23 19 16 11 7 3 355 349 346 345 345 342 336 329 323 319 312 296 268 251 247 246 243 239 234 231 225 217 207 197 192 193 194 193 190 187 186 182 176 174 172 171 173 175 173 171 171 170 171 176 180 181 180 177 180 191 201 204 205 209
93 90 92 94 95 94 92 91 92 92 90 90 94 96 97 106 113 112 113 111 110 126 132 87 343 337 354 1 352 347 347 346 344 343 344 346 343 335 328 326 324 319 299 270 258 254 252 252 250 246 240 231 216 203 194 191 191 191 188 183 179 176 171 168 169 170 169 171 173 171 171 174 175 175 177 176 177 184 189 188 191 198 203 205 210
93 87 84 83 85 85 83 83 84 85 85 87 89 94 99 109 113 108 103 83 44 358 29 35 333 328 359 2 344 342 349 350 347 345 346 349 346 336 329 325 319 311 299 282 271 265 261 259 257 256 252 238 218 203 196 192 189 186 181 175 171 168 166 167 169 169 168 171 174 172 172 174 174 175 178 177 178 188 198 197 195 199 203 205 209
89 88 84 82 85 86 83 81 83 87 90 91 91 95 92 81 69 63 62 59 34 351 351 12 353 345 10 358 343 346 353 351 346 344 346 353 352 344 333 323 311 305 302 297 286 276 273 270 264 262 258 240 215 201 193 187 183 177 173 169 166 165 166 166 166 166 167 169 171 172 172 173 172 172 177 181 185 191 200 204 202 200 199 201 206
79 78 72 74 87 95 94 92 97 107 106 96 86 83 79 72 65 51 34 36 30 2 357 9 2 354 358 350 343 347 349 345 342 343 346 354 357 352 345 337 325 316 313 309 298 285 280 273 260 253 258 249 213 189 175 169 168 167 167 166 164 162 162 162 162 164 166 166 167 168 170 171 171 172 177 184 189 192 200 208 205 192 188 199 210
88 85 78 75 83 91 93 92 90 87 86 84 78 71 61 49 41 34 22 21 23 10 3 4 359 359 360 352 346 347 347 344 343 343 346 352 356 353 350 346 340 338 339 336 325 303 290 279 251 225 209 180 167 166 164 164 168 170 168 163 158 155 156 157 158 161 165 166 167 169 169 170 172 175 180 186 190 191 199 209 209 196 189 194 203
99 99 100 99 101 100 94 88 81 72 66 66 65 61 56 45 30 21 17 16 13 7 1 355 356 5 5 356 353 352 345 341 342 339 337 344 353 353 352 352 350 352 356 0 5 13 45 96 91 80 81 97 116 142 155 158 159 157 151 146 145 147 153 156 159 163 166 167 168 169 170 170 172 178 186 191 189 190 196 206 213 212 203 187 182
108 110 115 123 130 113 90 76 70 64 58 56 53 48 43 38 27 17 12 7 359 355 353 347 349 354 350 347 352 351 332 326 337 337 332 336 346 351 353 354 355 357 359 1 8 28 70 100 102 99 98 99 101 104 116 129 136 137 137 139 142 146 150 154 157 160 163 164 166 167 168 169 169 175 186 192 190 193 200 206 210 213 205 173 165
104 100 94 85 73 69 67 61 57 54 48 48 51 48 39 35 29 19 11 2 352 345 340 337 342 346 338 338 345 343 326 320 332 336 330 331 337 342 349 353 355 356 358 2 10 30 56 75 89 104 114 119 122 125 127 132 137 140 142 143 142 142 144 148 152 157 160 163 164 164 163 165 167 172 181 192 198 202 203 200 197 194 186 180 184
95 86 78 70 58 51 50 47 44 46 42 36 37 33 17 8 7 0 349 342 341 339 334 334 342 346 339 338 341 335 327 329 338 335 330 331 333 336 343 351 354 354 356 0 12 40 71 80 83 94 106 113 120 127 133 137 140 140 139 136 133 134 137 141 146 151 154 157 161 162 162 166 171 175 181 190 198 200 192 181 177 181 188 195 197
78 73 72 71 63 55 53 46 38 40 40 32 27 20 8 360 357 352 340 332 333 336 334 335 342 343 338 338 338 333 332 337 339 331 328 330 331 334 340 348 355 359 1 4 16 36 66 85 94 101 107 112 117 123 128 133 137 138 137 135 134 135 139 142 144 148 149 151 157 163 165 165 168 173 177 180 184 184 179 176 181 187 192 197 200
47 48 53 58 56 51 51 47 39 36 35 33 31 27 20 14 10 4 354 347 344 340 335 333 336 337 335 335 335 334 334 336 335 332 330 330 329 332 338 344 356 11 20 25 37 50 71 92 101 105 107 110 114 117 121 128 134 137 139 141 140 140 142 145 147 147 147 146 147 151 154 156 160 167 171 173 175 177 178 180 187 193 195 197 201
49 51 55 58 55 48 43 40 38 36 36 34 31 26 22 19 14 8 4 2 356 348 343 341 339 340 342 342 339 335 332 331 333 336 336 333 333 332 333 336 351 36 68 75 84 92 98 105 109 109 110 115 118 119 121 126 132 134 137 139 138 138 140 143 144 143 143 143 143 145 152 159 166 169 170 170 173 179 184 187 191 195 196 197 201
58 60 59 57 54 49 44 40 37 36 35 33 31 27 21 18 15 11 8 6 2 357 354 352 352 353 352 346 339 334 330 329 330 332 335 341 344 342 339 342 359 77 96 92 96 102 105 109 114 115 115 117 120 121 123 125 128 128 129 131 133 134 135 139 143 144 146 149 152 156 161 167 171 169 167 170 177 184 189 190 191 192 195 197 201
57 57 57 55 53 49 44 40 37 35 34 32 30 26 21 17 15 12 8 8 9 8 4 359 356 356 353 345 338 337 336 336 334 331 332 348 358 356 356 7 37 86 95 94 102 110 114 117 120 121 120 118 117 118 121 125 127 127 127 130 134 136 136 139 144 149 152 155 158 159 162 166 168 166 166 172 181 186 187 189 189 192 195 198 201
52 52 53 54 54 52 49 46 43 40 37 33 30 26 22 21 20 16 11 11 12 12 10 7 2 359 354 346 340 339 343 349 349 344 340 357 22 22 22 42 70 91 104 113 120 123 123 122 119 117 115 114 111 112 117 122 126 129 132 136 141 144 145 146 149 151 153 155 155 154 156 161 164 165 169 176 182 185 186 188 188 190 194 198 201
52 52 52 53 54 54 54 52 50 46 41 37 35 31 26 25 24 20 16 15 15 14 12 11 9 6 2 355 349 344 345 355 1 0 356 9 48 57 60 76 94 107 116 121 124 125 124 123 119 114 112 113 112 111 113 117 126 135 141 145 149 152 152 152 152 151 149 148 149 150 154 158 158 160 167 175 180 182 184 187 190 192 196 201 204
51 52 52 52 51 51 51 51 51 49 44 40 38 36 33 31 29 25 23 22 22 20 18 17 15 14 12 9 8 8 5 8 15 18 14 14 31 61 82 91 103 114 119 121 122 121 119 119 118 115 115 117 117 116 117 123 135 144 148 149 153 156 157 156 154 150 144 142 146 149 151 154 155 156 162 172 180 182 184 188 194 198 201 204 204